EWG1244 EDDH-EDDF

Flight info

Callsign EWG1244
Flight time 0h 47m
Altitude 30000
Route AMLUH2G AMLUH M852 DENIX DCT RIMET/N0453F310 T157 KOKEB/N0410F230 T157 KERAX KERAX5A
Aircraft A320/M-SDE3FGHIRWY/LB1

Departure

Time 2026-05-06 17:40
Airport Hamburg Helmut Schmidt Airport (EDDH)

Arrival

Time 2026-05-06 18:27
Airport Frankfurt Main Airport (EDDF)
Time Latitude Longitude Altitude Speed Heading
2026-05-06 17:10 53.62942 10.00288 47 ft 0 kts 123°
2026-05-06 17:29 53.62946 10.00278 48 ft 4 kts 123°
2026-05-06 17:29 53.62961 10.00241 48 ft 4 kts 127°
2026-05-06 17:30 53.62979 10.00206 45 ft 4 kts 138°
2026-05-06 17:30 53.62999 10.00184 48 ft 4 kts 183°
2026-05-06 17:30 53.63008 10.00187 48 ft 0 kts 212°
2026-05-06 17:32 53.62998 10.00178 48 ft 3 kts 205°
2026-05-06 17:33 53.62969 10.00156 47 ft 4 kts 214°
2026-05-06 17:33 53.62942 10.00125 48 ft 4 kts 213°
2026-05-06 17:33 53.62918 10.00099 48 ft 6 kts 213°
2026-05-06 17:33 53.62869 10.00033 48 ft 9 kts 231°
2026-05-06 17:34 53.62843 9.99951 46 ft 0 kts 242°
2026-05-06 17:34 53.62843 9.99950 46 ft 0 kts 242°
2026-05-06 17:36 53.62841 9.99945 46 ft 1 kts 242°
2026-05-06 17:36 53.62831 9.99913 47 ft 7 kts 242°
2026-05-06 17:36 53.62826 9.99790 44 ft 11 kts 309°
2026-05-06 17:36 53.62864 9.99748 45 ft 0 kts 332°
2026-05-06 17:39 53.62890 9.99725 45 ft 18 kts 332°
2026-05-06 17:39 53.63234 9.99426 46 ft 91 kts 333°
2026-05-06 17:40 53.63976 9.98784 51 ft 146 kts 333°
2026-05-06 17:40 53.64967 9.97899 353 ft 167 kts 333°
2026-05-06 17:40 53.65994 9.96956 847 ft 173 kts 336°
2026-05-06 17:40 53.67139 9.95995 1164 ft 194 kts 338°
2026-05-06 17:41 53.68419 9.94983 1493 ft 208 kts 346°
2026-05-06 17:41 53.69828 9.94662 2082 ft 204 kts
2026-05-06 17:41 53.71238 9.94912 2686 ft 206 kts
2026-05-06 17:41 53.72618 9.95426 3244 ft 203 kts 34°
2026-05-06 17:42 53.73504 9.97213 3778 ft 203 kts 70°
2026-05-06 17:42 53.73693 9.98337 4053 ft 204 kts 76°
2026-05-06 17:42 53.73920 10.00224 4516 ft 208 kts 78°
2026-05-06 17:42 53.74056 10.02634 5265 ft 213 kts 92°
2026-05-06 17:43 53.73690 10.05136 5807 ft 233 kts 114°
2026-05-06 17:43 53.72837 10.07641 6183 ft 258 kts 118°
2026-05-06 17:43 53.71922 10.10342 6795 ft 270 kts 117°
2026-05-06 17:43 53.70995 10.13128 7580 ft 275 kts 116°
2026-05-06 17:44 53.70049 10.15975 8382 ft 280 kts 118°
2026-05-06 17:44 53.68863 10.18638 9190 ft 288 kts 133°
2026-05-06 17:44 53.67256 10.20740 9738 ft 295 kts 149°
2026-05-06 17:44 53.65348 10.22027 9866 ft 301 kts 164°
2026-05-06 17:45 53.63208 10.22970 9893 ft 335 kts 165°
2026-05-06 17:45 53.60916 10.23994 9897 ft 344 kts 164°
2026-05-06 17:45 53.58608 10.25042 9895 ft 346 kts 164°
2026-05-06 17:45 53.56321 10.26086 9888 ft 340 kts 163°
2026-05-06 17:46 53.54031 10.27140 9893 ft 335 kts 163°
2026-05-06 17:46 53.51794 10.28174 9899 ft 334 kts 163°
2026-05-06 17:46 53.49556 10.29206 10274 ft 340 kts 163°
2026-05-06 17:46 53.47239 10.30269 10897 ft 348 kts 164°
2026-05-06 17:47 53.44878 10.31329 11627 ft 352 kts 164°
2026-05-06 17:47 53.42509 10.32406 12400 ft 354 kts 164°
2026-05-06 17:47 53.40124 10.33493 13175 ft 356 kts 165°
2026-05-06 17:47 53.37723 10.34582 13947 ft 357 kts 167°
2026-05-06 17:48 53.35319 10.35668 14636 ft 359 kts 167°
2026-05-06 17:48 53.32890 10.36753 15286 ft 362 kts 167°
2026-05-06 17:48 53.30443 10.37833 15929 ft 365 kts 167°
2026-05-06 17:48 53.27975 10.38920 16551 ft 368 kts 168°
2026-05-06 17:49 53.25495 10.40029 17176 ft 370 kts 168°
2026-05-06 17:49 53.22994 10.41158 17791 ft 373 kts 168°
2026-05-06 17:49 53.20493 10.42421 18357 ft 377 kts 166°
2026-05-06 17:49 53.18005 10.43613 18873 ft 379 kts 167°
2026-05-06 17:50 53.15445 10.44735 19363 ft 381 kts 169°
2026-05-06 17:50 53.12828 10.45419 19851 ft 382 kts 179°
2026-05-06 17:50 53.10172 10.45317 20336 ft 383 kts 187°
2026-05-06 17:50 53.07512 10.44839 20798 ft 386 kts 187°
2026-05-06 17:51 53.04818 10.44443 21263 ft 390 kts 186°
2026-05-06 17:51 53.02099 10.44107 21727 ft 393 kts 185°
2026-05-06 17:51 52.99357 10.43786 22177 ft 397 kts 186°
2026-05-06 17:51 52.96597 10.43449 22619 ft 400 kts 186°
2026-05-06 17:52 52.93808 10.43086 23064 ft 403 kts 186°
2026-05-06 17:52 52.91001 10.42704 23485 ft 406 kts 186°
2026-05-06 17:52 52.88173 10.42313 23851 ft 409 kts 186°
2026-05-06 17:52 52.85327 10.41921 24225 ft 412 kts 186°
2026-05-06 17:53 52.82464 10.41530 24586 ft 414 kts 186°
2026-05-06 17:53 52.79581 10.41136 24952 ft 416 kts 186°
2026-05-06 17:53 52.76698 10.40744 25334 ft 417 kts 186°
2026-05-06 17:53 52.73823 10.40358 25728 ft 419 kts 186°
2026-05-06 17:54 52.70873 10.39958 26092 ft 421 kts 186°
2026-05-06 17:54 52.67986 10.39574 26441 ft 423 kts 186°
2026-05-06 17:54 52.65048 10.39181 26797 ft 425 kts 186°
2026-05-06 17:54 52.62096 10.38782 27136 ft 427 kts 186°
2026-05-06 17:55 52.59118 10.38380 27472 ft 429 kts 186°
2026-05-06 17:55 52.56131 10.37976 27798 ft 431 kts 186°
2026-05-06 17:55 52.53132 10.37568 28125 ft 433 kts 187°
2026-05-06 17:55 52.50121 10.37159 28475 ft 434 kts 186°
2026-05-06 17:56 52.48127 10.36893 28687 ft 435 kts 186°
2026-05-06 17:56 52.45107 10.36487 28998 ft 436 kts 187°
2026-05-06 17:56 52.42077 10.36077 29301 ft 438 kts 186°
2026-05-06 17:56 52.39026 10.35673 29595 ft 440 kts 186°
2026-05-06 17:57 52.35967 10.35272 29805 ft 441 kts 186°
2026-05-06 17:57 52.32929 10.34875 29836 ft 434 kts 186°
2026-05-06 17:57 52.26962 10.34091 29834 ft 426 kts 186°
2026-05-06 17:58 52.21071 10.33309 29828 ft 424 kts 186°
2026-05-06 17:58 52.15192 10.32516 29826 ft 423 kts 187°
2026-05-06 17:59 52.09361 10.31724 29819 ft 423 kts 186°
2026-05-06 17:59 52.03480 10.30979 29808 ft 423 kts 186°
2026-05-06 18:00 51.97611 10.30228 29811 ft 422 kts 186°
2026-05-06 18:00 51.91749 10.29457 29791 ft 422 kts 187°
2026-05-06 18:01 51.85915 10.28697 29833 ft 419 kts 187°
2026-05-06 18:01 51.80125 10.27949 29828 ft 417 kts 187°
2026-05-06 18:02 51.74380 10.27209 29824 ft 415 kts 187°
2026-05-06 18:02 51.68617 10.26467 29815 ft 415 kts 187°
2026-05-06 18:03 51.62864 10.25720 29808 ft 414 kts 187°
2026-05-06 18:03 51.57119 10.24970 29787 ft 414 kts 186°
2026-05-06 18:04 51.51404 10.24241 29781 ft 415 kts 186°
2026-05-06 18:04 51.45638 10.23510 29781 ft 415 kts 186°
2026-05-06 18:05 51.39884 10.22767 29779 ft 415 kts 186°
2026-05-06 18:05 51.34110 10.22027 29775 ft 416 kts 186°
2026-05-06 18:06 51.28319 10.21619 29781 ft 417 kts 182°
2026-05-06 18:06 51.22509 10.21612 29781 ft 417 kts 181°
2026-05-06 18:07 51.16709 10.21616 29775 ft 417 kts 182°
2026-05-06 18:07 51.10893 10.21522 29773 ft 417 kts 182°
2026-05-06 18:08 51.05101 10.21398 29776 ft 418 kts 182°
2026-05-06 18:08 50.99283 10.21278 29776 ft 418 kts 182°
2026-05-06 18:09 50.96393 10.20874 29660 ft 417 kts 193°
2026-05-06 18:09 50.93673 10.19315 28890 ft 416 kts 210°
2026-05-06 18:09 50.91334 10.16610 27960 ft 416 kts 220°
2026-05-06 18:09 50.89134 10.13632 26974 ft 414 kts 220°
2026-05-06 18:10 50.86948 10.10650 26039 ft 413 kts 220°
2026-05-06 18:10 50.84780 10.07696 25157 ft 410 kts 220°
2026-05-06 18:10 50.82621 10.04772 24305 ft 406 kts 220°
2026-05-06 18:10 50.80478 10.01888 23475 ft 403 kts 220°
2026-05-06 18:11 50.78347 9.99038 22517 ft 399 kts 220°
2026-05-06 18:11 50.76237 9.96227 21588 ft 394 kts 220°
2026-05-06 18:11 50.74149 9.93450 20677 ft 389 kts 220°
2026-05-06 18:11 50.72103 9.90735 19793 ft 380 kts 220°
2026-05-06 18:12 50.70102 9.88075 18923 ft 372 kts 220°
2026-05-06 18:12 50.68163 9.85494 18110 ft 366 kts 220°
2026-05-06 18:12 50.66237 9.82932 17173 ft 360 kts 220°
2026-05-06 18:12 50.64336 9.80407 16257 ft 355 kts 220°
2026-05-06 18:13 50.62461 9.77921 15360 ft 350 kts 220°
2026-05-06 18:13 50.60607 9.75469 14500 ft 346 kts 220°
2026-05-06 18:13 50.58778 9.73049 13649 ft 342 kts 220°
2026-05-06 18:13 50.56969 9.70661 12734 ft 337 kts 220°
2026-05-06 18:14 50.55181 9.68311 11826 ft 332 kts 220°
2026-05-06 18:14 50.53417 9.65992 10945 ft 328 kts 220°
2026-05-06 18:14 50.51684 9.63708 10079 ft 323 kts 220°
2026-05-06 18:14 50.49972 9.61451 9188 ft 318 kts 220°
2026-05-06 18:15 50.48431 9.58997 8271 ft 313 kts 232°
2026-05-06 18:15 50.47263 9.56135 7379 ft 309 kts 242°
2026-05-06 18:15 50.46065 9.53438 6956 ft 297 kts 227°
2026-05-06 18:15 50.44646 9.51141 6812 ft 296 kts 226°
2026-05-06 18:16 50.43188 9.48840 6797 ft 297 kts 226°
2026-05-06 18:16 50.41733 9.46550 6802 ft 297 kts 226°
2026-05-06 18:16 50.40260 9.44218 6802 ft 296 kts 226°
2026-05-06 18:16 50.38837 9.41942 6666 ft 296 kts 226°
2026-05-06 18:17 50.37399 9.39628 6422 ft 295 kts 227°
2026-05-06 18:17 50.35977 9.37330 6179 ft 294 kts 227°
2026-05-06 18:17 50.34556 9.35030 5922 ft 293 kts 227°
2026-05-06 18:17 50.33141 9.32742 5662 ft 292 kts 227°
2026-05-06 18:18 50.31745 9.30491 5403 ft 283 kts 227°
2026-05-06 18:18 50.30397 9.28317 5143 ft 274 kts 227°
2026-05-06 18:18 50.29095 9.26217 4906 ft 265 kts 227°
2026-05-06 18:18 50.27830 9.24183 4648 ft 258 kts 227°
2026-05-06 18:19 50.26588 9.22186 4396 ft 254 kts 227°
2026-05-06 18:19 50.25355 9.20203 4136 ft 254 kts 227°
2026-05-06 18:19 50.24126 9.18228 4004 ft 253 kts 227°
2026-05-06 18:19 50.22897 9.16259 4008 ft 254 kts 227°
2026-05-06 18:20 50.21657 9.14275 4008 ft 255 kts 227°
2026-05-06 18:20 50.20421 9.12293 4010 ft 254 kts 227°
2026-05-06 18:20 50.19186 9.10313 4010 ft 254 kts 227°
2026-05-06 18:20 50.17955 9.08339 4008 ft 254 kts 227°
2026-05-06 18:21 50.16722 9.06367 4008 ft 255 kts 227°
2026-05-06 18:21 50.15500 9.04418 4010 ft 254 kts 227°
2026-05-06 18:21 50.14330 9.02314 4007 ft 254 kts 241°
2026-05-06 18:21 50.13653 8.99819 4011 ft 253 kts 251°
2026-05-06 18:22 50.13093 8.97222 4008 ft 253 kts 251°
2026-05-06 18:22 50.12505 8.94639 4011 ft 252 kts 250°
2026-05-06 18:22 50.11904 8.92078 4007 ft 251 kts 250°
2026-05-06 18:22 50.11315 8.89574 4006 ft 244 kts 250°
2026-05-06 18:23 50.10748 8.87164 4007 ft 228 kts 250°
2026-05-06 18:23 50.10210 8.84878 3873 ft 223 kts 250°
2026-05-06 18:23 50.09679 8.82619 3612 ft 221 kts 250°
2026-05-06 18:23 50.09152 8.80384 3327 ft 219 kts 251°
2026-05-06 18:24 50.08629 8.78167 3036 ft 217 kts 251°
2026-05-06 18:24 50.08108 8.75961 2738 ft 216 kts 251°
2026-05-06 18:24 50.07598 8.73805 2441 ft 205 kts 252°
2026-05-06 18:24 50.07124 8.71806 2181 ft 191 kts 253°
2026-05-06 18:25 50.06676 8.69915 1949 ft 182 kts 253°
2026-05-06 18:25 50.06272 8.68075 1839 ft 178 kts 260°
2026-05-06 18:25 50.06075 8.66208 1551 ft 167 kts 265°
2026-05-06 18:25 50.05892 8.64526 1248 ft 153 kts 257°
2026-05-06 18:26 50.05505 8.63029 987 ft 146 kts 251°
2026-05-06 18:26 50.05168 8.61554 786 ft 144 kts 255°
2026-05-06 18:26 50.04839 8.60085 592 ft 142 kts 252°
2026-05-06 18:26 50.04499 8.58661 409 ft 142 kts 252°
2026-05-06 18:27 50.04178 8.57325 368 ft 120 kts 250°
2026-05-06 18:27 50.03946 8.56331 358 ft 73 kts 250°
2026-05-06 18:27 50.03875 8.55932 353 ft 15 kts 276°
2026-05-06 18:27 50.03894 8.55776 354 ft 10 kts 281°
2026-05-06 18:28 50.03901 8.55722 349 ft 2 kts 281°
2026-05-06 18:28 50.03904 8.55702 348 ft 2 kts 281°
2026-05-06 18:28 50.03905 8.55688 348 ft 1 kts 281°
2026-05-06 18:28 50.03906 8.55682 350 ft 1 kts 281°
2026-05-06 18:29 50.03907 8.55679 350 ft 0 kts 282°
2026-05-06 18:29 50.03921 8.55640 356 ft 9 kts 322°
2026-05-06 18:29 50.03975 8.55668 353 ft 8 kts 52°
2026-05-06 18:30 50.03994 8.55735 350 ft 6 kts 69°
2026-05-06 18:30 50.04009 8.55794 352 ft 8 kts 69°
2026-05-06 18:30 50.04045 8.55938 357 ft 20 kts 69°
2026-05-06 18:30 50.04094 8.56138 355 ft 20 kts 70°
2026-05-06 18:31 50.04142 8.56341 361 ft 20 kts 69°
2026-05-06 18:31 50.04191 8.56547 359 ft 20 kts 70°
2026-05-06 18:31 50.04237 8.56738 360 ft 18 kts 70°
2026-05-06 18:31 50.04277 8.56908 361 ft 16 kts 69°
2026-05-06 18:32 50.04313 8.57058 364 ft 13 kts 70°
2026-05-06 18:32 50.04347 8.57201 364 ft 19 kts 69°
2026-05-06 18:32 50.04397 8.57409 361 ft 21 kts 73°
2026-05-06 18:32 50.04436 8.57575 365 ft 14 kts 69°
2026-05-06 18:33 50.04473 8.57729 370 ft 15 kts 69°
2026-05-06 18:33 50.04507 8.57867 368 ft 13 kts 70°
2026-05-06 18:33 50.04537 8.57989 366 ft 11 kts 62°
2026-05-06 18:33 50.04611 8.58015 361 ft 14 kts 340°
2026-05-06 18:34 50.04715 8.57954 360 ft 17 kts 340°
2026-05-06 18:34 50.04825 8.57875 360 ft 18 kts 316°
2026-05-06 18:34 50.04869 8.57760 364 ft 10 kts 293°
2026-05-06 18:34 50.04898 8.57644 359 ft 13 kts 295°
2026-05-06 18:35 50.04926 8.57554 360 ft 4 kts 296°
2026-05-06 18:35 50.04932 8.57512 361 ft 3 kts 261°
2026-05-06 18:35 50.04920 8.57488 356 ft 2 kts 223°
2026-05-06 18:35 50.04908 8.57472 360 ft 3 kts 220°
2026-05-06 18:36 50.04897 8.57457 359 ft 2 kts 218°
2026-05-06 18:36 50.04890 8.57449 358 ft 1 kts 218°
2026-05-06 18:36 50.04887 8.57445 358 ft 1 kts 218°
2026-05-06 18:36 50.04884 8.57441 358 ft 0 kts 218°
2026-05-06 18:37 50.04883 8.57440 358 ft 0 kts 218°